Location: Bathurst
(33.4193°S, 149.5775°E)
Time: 23:56:15
(UTC+10:00)

Vanguard 3 - Pass Details

Date: 02 July 2021
Orbit: 508 x 3261 km, 33.4° (Epoch: 25 July)

Event Time Altitude Azimuth Distance (km) Brightness Sun altitude
Rises 21:32:25 0° 253° (WSW) 6,978 12.4 -54.9°
Reaches altitude 10° 21:37:17 10° 259° (W) 6,116 12.0 -55.9°
Enters shadow 21:54:52 42° 320° (NW) 3,985 10.5 -59.5°
